Date String (YYYY-MM-DD hh:mm:ss) UTC,Instrument flags,Ambient pressure (hPa),Sample flow (lpm),Bypass flow (lpm),Sample temperature (°C),Ambient temperature (°C),ASC tube jacket temperature (°C),LED temperature (°C),Box temperature (°C),Sample RH (%),Span deviation,Mass concentration (μg/m³),Mass concentration (μg/m³),Mass concentration (μg/m³)
DateTimeUTC,F1_M11,P_M11,Q1_M11,Q2_M11,T1_M11,T2_M11,T3_M11,T4_M11,T5_M11,U1_M11,ZSPAN_M11,X0_M11,X2_M11,X1_M11
2022-07-19 22:00:00,,0826.2,5.01,0.00,29.1,26.9,00.0,37.6,31.0,22.4,0000.0,0011.23,0004.95,0003.89
2022-07-19 22:01:00,,0826.2,5.00,0.00,29.1,27.0,00.0,37.7,31.0,22.8,0000.0,0011.32,0005.00,0003.91
2022-07-19 22:02:00,,0826.2,5.00,0.00,29.1,27.1,00.0,37.7,30.9,22.9,0000.0,0011.27,0005.03,0003.93
2022-07-19 22:03:00,,0826.2,5.01,0.00,29.1,27.3,00.0,37.7,31.0,23.2,0000.0,0011.35,0005.03,0003.93
2022-07-19 22:04:00,,0826.2,5.00,0.00,29.1,27.6,00.0,37.7,31.1,23.7,0000.0,0011.40,0005.08,0003.95
2022-07-19 22:05:00,,0826.2,4.99,0.00,29.1,27.8,00.0,37.7,31.1,23.7,0000.0,0011.33,0005.11,0003.98
2022-07-19 22:06:00,,0826.2,5.02,0.00,29.2,27.6,00.0,37.7,31.1,23.6,0000.0,0011.32,0005.22,0003.98
2022-07-19 22:07:00,,0826.2,5.00,0.00,29.2,27.1,00.0,37.7,31.1,23.3,0000.0,0011.64,0005.31,0004.00
2022-07-19 22:08:00,,0826.1,5.00,0.00,29.1,27.0,00.0,37.7,31.0,23.4,0000.0,0011.34,0005.36,0004.01
2022-07-19 22:09:00,,0826.2,5.01,0.00,29.1,27.2,00.0,37.7,31.0,23.4,0000.0,0011.55,0005.38,0004.01
2022-07-19 22:10:00,,0826.2,5.01,0.00,29.1,27.4,00.0,37.7,31.0,23.7,0000.0,0012.16,0005.44,0004.01
2022-07-19 22:11:00,,0826.2,4.99,0.00,29.1,27.6,00.0,37.7,31.1,23.4,0000.0,0012.83,0005.46,0004.01
2022-07-19 22:12:00,,0826.2,5.00,0.00,29.2,27.8,00.0,37.8,31.2,23.2,0000.0,0012.84,0005.42,0004.01
2022-07-19 22:13:00,,0826.2,4.99,0.00,29.2,27.6,00.0,37.7,31.2,23.1,0000.0,0012.91,0005.44,0004.01
2022-07-19 22:14:00,,0826.2,5.00,0.00,29.2,27.1,00.0,37.7,31.1,23.3,0000.0,0012.86,0005.45,0004.01
2022-07-19 22:15:00,,0826.2,5.01,0.00,29.2,27.1,00.0,37.7,31.1,23.0,0000.0,0012.82,0005.41,0003.99
2022-07-19 22:16:00,,0826.2,5.00,0.00,29.1,27.2,00.0,37.7,31.0,23.0,0000.0,0013.10,0005.41,0003.98
2022-07-19 22:17:00,,0826.2,5.01,0.00,29.1,27.4,00.0,37.7,31.0,23.2,0000.0,0013.59,0005.33,0003.97
2022-07-19 22:18:00,,0826.1,5.00,0.00,29.2,27.6,00.0,37.8,31.1,23.2,0000.0,0013.01,0005.27,0003.95
2022-07-19 22:19:00,,0826.2,5.00,0.00,29.2,27.6,00.0,37.8,31.1,23.1,0000.0,0012.56,0005.28,0003.94
2022-07-19 22:20:00,,0826.2,4.98,0.00,29.2,27.1,00.0,37.7,31.1,23.1,0000.0,0012.56,0005.26,0003.93
2022-07-19 22:21:00,,0826.2,5.00,0.00,29.1,26.9,00.0,37.7,31.0,22.9,0000.0,0012.67,0005.23,0003.92
2022-07-19 22:22:00,,0826.2,5.00,0.00,29.1,27.0,00.0,37.7,31.0,23.2,0000.0,0012.19,0005.20,0003.90
2022-07-19 22:23:00,,0826.1,5.01,0.00,29.1,27.2,00.0,37.7,31.0,23.0,0000.0,0012.60,0005.21,0003.89
2022-07-19 22:24:00,,0826.2,5.01,0.00,29.1,27.4,00.0,37.7,31.0,23.2,0000.0,0012.87,0005.16,0003.87
2022-07-19 22:25:00,,0826.2,4.99,0.00,29.1,27.7,00.0,37.8,31.1,23.3,0000.0,0013.07,0005.13,0003.86
2022-07-19 22:26:00,,0826.1,5.01,0.00,29.2,27.8,00.0,37.8,31.2,23.3,0000.0,0013.17,0005.14,0003.86
2022-07-19 22:27:00,,0826.2,5.01,0.00,29.2,27.5,00.0,37.7,31.1,23.5,0000.0,0013.62,0005.08,0003.86
2022-07-19 22:28:00,,0826.2,5.00,0.00,29.2,27.0,00.0,37.7,31.0,23.2,0000.0,0013.18,0005.10,0003.87
2022-07-19 22:29:00,,0826.2,4.99,0.00,29.1,27.0,00.0,37.7,31.0,23.2,0000.0,0013.41,0005.12,0003.88
2022-07-19 22:30:00,,0826.2,5.00,0.00,29.1,27.1,00.0,37.7,31.0,23.0,0000.0,0013.51,0005.08,0003.88
2022-07-19 22:31:00,,0826.2,5.00,0.00,29.1,27.4,00.0,37.8,31.0,23.1,0000.0,0013.30,0005.07,0003.87
2022-07-19 22:32:00,,0826.2,5.00,0.00,29.1,27.6,00.0,37.8,31.1,23.3,0000.0,0012.44,0005.03,0003.88
2022-07-19 22:33:00,,0826.2,5.00,0.00,29.2,27.8,00.0,37.8,31.2,23.1,0000.0,0012.77,0005.02,0003.88
2022-07-19 22:34:00,,0826.2,5.00,0.00,29.2,27.4,00.0,37.7,31.1,23.1,0000.0,0012.14,0004.99,0003.87
2022-07-19 22:35:00,,0826.1,4.99,0.00,29.2,27.0,00.0,37.7,31.0,23.1,0000.0,0011.76,0005.02,0003.87
2022-07-19 22:36:00,,0826.1,5.01,0.00,29.1,27.0,00.0,37.7,31.0,23.0,0000.0,0011.49,0005.04,0003.88
2022-07-19 22:37:00,,0826.1,5.01,0.00,29.1,27.2,00.0,37.7,31.0,23.3,0000.0,0011.43,0005.05,0003.89
2022-07-19 22:38:00,,0826.2,5.00,0.00,29.1,27.4,00.0,37.8,31.0,23.6,0000.0,0010.80,0005.07,0003.90
2022-07-19 22:39:00,,0826.2,4.99,0.00,29.1,27.6,00.0,37.8,31.1,23.4,0000.0,0010.74,0005.10,0003.90
2022-07-19 22:40:00,,0826.2,5.00,0.00,29.2,27.8,00.0,37.8,31.2,23.4,0000.0,0010.85,0005.10,0003.89
2022-07-19 22:41:00,,0826.2,5.00,0.00,29.2,27.4,00.0,37.7,31.1,23.5,0000.0,0011.30,0005.12,0003.89
2022-07-19 22:42:00,,0826.2,5.01,0.00,29.2,27.0,00.0,37.7,31.1,23.5,0000.0,0011.36,0005.14,0003.91
2022-07-19 22:43:00,,0826.1,5.00,0.00,29.2,27.1,00.0,37.7,31.1,23.2,0000.0,0011.40,0005.16,0003.92
2022-07-19 22:44:00,,0826.2,5.00,0.00,29.1,27.3,00.0,37.7,31.0,23.4,0000.0,0011.50,0005.16,0003.93
2022-07-19 22:45:00,,0826.1,5.00,0.00,29.1,27.5,00.0,37.8,31.1,23.6,0000.0,0011.83,0005.21,0003.94
2022-07-19 22:46:00,,0826.1,4.99,0.00,29.2,27.7,00.0,37.8,31.1,23.3,0000.0,0012.03,0005.22,0003.96
2022-07-19 22:47:00,,0826.1,5.00,0.00,29.2,27.8,00.0,37.8,31.2,23.7,0000.0,0012.07,0005.22,0003.97
2022-07-19 22:48:00,,0826.2,5.00,0.00,29.2,27.3,00.0,37.8,31.1,23.8,0000.0,0012.20,0005.26,0003.98
2022-07-19 22:49:00,,0826.2,5.01,0.00,29.2,27.0,00.0,37.7,31.1,23.6,0000.0,0012.21,0005.31,0004.00
2022-07-19 22:50:00,,0826.2,4.99,0.00,29.2,27.0,00.0,37.7,31.0,23.9,0000.0,0012.39,0005.39,0004.02
2022-07-19 22:51:00,,0826.1,5.01,0.00,29.1,27.2,00.0,37.8,31.0,23.8,0000.0,0012.25,0005.43,0004.05
2022-07-19 22:52:00,,0826.2,4.99,0.00,29.1,27.4,00.0,37.8,31.0,23.6,0000.0,0011.67,0005.42,0004.07
2022-07-19 22:53:00,,0826.1,5.00,0.00,29.2,27.6,00.0,37.8,31.1,23.4,0000.0,0011.42,0005.44,0004.08
2022-07-19 22:54:00,,0826.2,5.00,0.00,29.2,27.9,00.0,37.8,31.2,23.6,0000.0,0011.34,0005.43,0004.10
2022-07-19 22:55:00,,0826.2,5.00,0.00,29.2,27.7,00.0,37.8,31.2,23.3,0000.0,0011.70,0005.45,0004.11
2022-07-19 22:56:00,,0826.2,4.99,0.00,29.2,27.2,00.0,37.7,31.1,23.2,0000.0,0011.61,0005.49,0004.13
2022-07-19 22:57:00,,0826.2,5.01,0.00,29.2,27.1,00.0,37.7,31.1,23.2,0000.0,0011.46,0005.53,0004.15
2022-07-19 22:58:00,,0826.2,4.99,0.00,29.2,27.2,00.0,37.8,31.1,23.3,0000.0,0011.58,0005.56,0004.16
2022-07-19 22:59:00,,0826.2,5.00,0.00,29.2,27.4,00.0,37.8,31.1,23.4,0000.0,0012.14,0005.54,0004.17
